St. Augustine, FL

2:31 PM EDT on May 24, 2018 (GMT -0400)
Saint Augustine

Weather History for KSGJ - November, 2013

Change the Weather History Date:

Tuesday, November 26, 2013

  Actual Average Record
Temperature  
Mean Temperature 72 °F -  
Max Temperature 77 °F 68 °F 84 °F (1986)
Min Temperature 66 °F 51 °F 36 °F (1991)
Cooling Degree Days 6    
Growing Degree Days 22 (Base 50)    
Moisture  
Dew Point 68 °F    
Average Humidity 91    
Maximum Humidity 100    
Minimum Humidity 78    
Precipitation  
Precipitation 0.79 in - - ()
Sea Level Pressure  
Sea Level Pressure 29.91 in    
Wind  
Wind Speed 11 mph (SSE)    
Max Wind Speed 16 mph    
Max Gust Speed 22 mph    
Visibility 6 miles    
Events Rain , Thunderstorm    
Averages and records for this station are not official NWS values.
T = Trace of Precipitation, MM = Missing Value Source: NWS Daily Summary

Daily Weather History Graph

Daily Weather History Graph

Search for Another Location

Airport or City:

Astronomy

Nov. 26, 2013 Rise Set
Actual Time 6:59 AM EST 5:25 PM EST
Civil Twilight 6:33 AM EST 5:51 PM EST
Nautical Twilight 6:04 AM EST 6:20 PM EST
Astronomical Twilight 5:35 AM EST 6:49 PM EST
Moon 12:30 AM EST (11/26) 1:06 PM EST (11/26)
Length of Visible Light 11h 17m
Length of Day
10h 26m
Last Quarter, 41% of the Moon is Illuminated
Nov 26
Last Quarter
Dec 2
New
Dec 9
First Quarter
Dec 17
Full
Dec 25
Last Quarter

Hourly Weather History & Observations

Time (EST) Temp. Dew Point Humidity Pressure Visibility Wind Dir Wind Speed Gust Speed Precip Events Conditions
12:58 AM 68.0 °F 61.0 °F 78% 30.11 in 10.0 mi ESE 13.8 mph - N/A   Clear
1:58 AM 68.0 °F 62.1 °F 81% 30.10 in 10.0 mi SE 10.4 mph - N/A   Clear
2:58 AM 66.9 °F 63.0 °F 87% 30.06 in 10.0 mi SE 13.8 mph - N/A   Clear
3:58 AM 68.0 °F 64.0 °F 87% 30.05 in 10.0 mi ESE 9.2 mph - N/A   Mostly Cloudy
4:58 AM 68.0 °F 64.0 °F 87% 30.04 in 10.0 mi SE 9.2 mph - N/A   Mostly Cloudy
5:58 AM 68.0 °F 64.9 °F 90% 30.02 in 9.0 mi SE 10.4 mph - N/A   Scattered Clouds
6:24 AM 68.0 °F 64.4 °F 88% 30.01 in 10.0 mi SE 10.4 mph - N/A   Mostly Cloudy
6:39 AM 68.0 °F 64.4 °F 88% 30.01 in 10.0 mi SSE 11.5 mph - N/A   Overcast
6:58 AM 68.0 °F 64.9 °F 90% 30.00 in 10.0 mi SE 11.5 mph - N/A   Overcast
7:11 AM 68.0 °F 64.4 °F 88% 29.99 in 9.0 mi SSE 11.5 mph - N/A   Overcast
7:17 AM 68.0 °F 64.4 °F 88% 29.99 in 10.0 mi SSE 11.5 mph - N/A   Overcast
7:30 AM 68.0 °F 66.2 °F 94% 29.99 in 4.0 mi SE 9.2 mph - N/A   Mostly Cloudy
7:58 AM 69.1 °F 66.0 °F 90% 29.98 in 3.0 mi SE 12.7 mph - N/A   Mostly Cloudy
8:38 AM 69.8 °F 66.2 °F 88% 29.98 in 2.0 mi SSE 15.0 mph - 0.00 in Rain Light Rain
8:58 AM 70.0 °F 68.0 °F 93% 29.99 in 2.0 mi SSE 15.0 mph - 0.02 in   Overcast
9:02 AM 69.8 °F 68.0 °F 94% 29.99 in 2.0 mi SSE 15.0 mph - N/A   Overcast
9:37 AM 69.8 °F 68.0 °F 94% 29.98 in 2.0 mi SSE 12.7 mph - 0.10 in   Overcast
9:58 AM 70.0 °F 68.0 °F 93% 29.97 in 2.0 mi SSE 11.5 mph - 0.12 in   Overcast
10:47 AM 69.8 °F 68.0 °F 94% 29.95 in 2.0 mi SSE 13.8 mph 19.6 mph 0.02 in   Overcast
10:58 AM 70.0 °F 69.1 °F 97% 29.95 in 2.0 mi SSE 12.7 mph - 0.02 in   Overcast
11:02 AM 69.8 °F 69.8 °F 100% 29.94 in 7.0 mi SSE 16.1 mph - N/A   Overcast
11:06 AM 69.8 °F 69.8 °F 100% 29.94 in 2.0 mi SSE 11.5 mph 21.9 mph N/A   Overcast
11:58 AM 71.1 °F 69.1 °F 93% 29.91 in 2.0 mi SSE 12.7 mph - N/A   Overcast
12:02 PM 71.6 °F 69.8 °F 94% 29.90 in 6.0 mi SSE 10.4 mph - N/A   Mostly Cloudy
12:08 PM 71.6 °F 69.8 °F 94% 29.90 in 2.0 mi SSE 11.5 mph - N/A   Mostly Cloudy
12:56 PM 71.6 °F 69.8 °F 94% 29.87 in 4.0 mi SSE 11.5 mph - N/A   Mostly Cloudy
12:58 PM 72.0 °F 69.1 °F 91% 29.87 in 4.0 mi SSE 10.4 mph - N/A   Mostly Cloudy
1:06 PM 73.4 °F 69.8 °F 88% 29.87 in 4.0 mi South 8.1 mph - N/A   Mostly Cloudy
1:57 PM 75.0 °F 71.1 °F 87% 29.84 in 7.0 mi SSE 9.2 mph - N/A   Mostly Cloudy
2:49 PM 77.0 °F 71.6 °F 83% 29.80 in 9.0 mi SSE 13.8 mph - N/A   Mostly Cloudy
2:58 PM 77.0 °F 71.1 °F 82% 29.80 in 10.0 mi SSE 10.4 mph - N/A   Mostly Cloudy
3:58 PM 73.9 °F 70.0 °F 87% 29.77 in 9.0 mi SSE 11.5 mph - N/A   Clear
4:58 PM 73.0 °F 69.1 °F 87% 29.78 in 4.0 mi South 5.8 mph - N/A   Partly Cloudy
5:58 PM 72.0 °F 69.1 °F 91% 29.78 in 8.0 mi SSE 4.6 mph - N/A   Mostly Cloudy
6:58 PM 72.0 °F 70.0 °F 93% 29.78 in 10.0 mi South 4.6 mph - 0.05 in   Mostly Cloudy
7:58 PM 70.0 °F 69.1 °F 97% 29.78 in 6.0 mi Calm Calm - 0.00 in Rain Light Rain
8:58 PM 73.0 °F 70.0 °F 90% 29.78 in 10.0 mi SSW 4.6 mph - 0.04 in Rain Light Rain
9:09 PM 71.6 °F 69.8 °F 94% 29.79 in 4.0 mi SW 13.8 mph 20.7 mph 0.23 in Rain , Thunderstorm Heavy Thunderstorms and Rain
9:26 PM 71.6 °F 69.8 °F 94% 29.78 in 5.0 mi South 9.2 mph - 0.41 in Rain Rain
9:34 PM 71.6 °F 71.6 °F 100% 29.78 in 8.0 mi South 11.5 mph 19.6 mph 0.42 in Rain Light Rain
9:56 PM 71.6 °F 69.8 °F 94% 29.77 in 9.0 mi South 9.2 mph - 0.46 in Rain Rain
9:58 PM 72.0 °F 70.0 °F 93% 29.78 in 9.0 mi SSW 11.5 mph - 0.46 in Rain Light Rain
10:58 PM 72.0 °F 71.1 °F 97% 29.75 in 10.0 mi SSW 10.4 mph - 0.03 in Rain Light Rain
11:58 PM 72.0 °F 71.1 °F 97% 29.73 in 10.0 mi SSW 10.4 mph 18.4 mph 0.05 in Rain Light Rain